Flag for Canada Weather past 2 weeks in Stonewall, Manitoba, Canada

28 °F

Mostly cloudy.

Feels Like: 18 °F
Forecast: 12 / 29 °F
Wind: 13 mph from North

Location: Winnipeg Int. Airportman.

Current Time: Nov 25, 2015 at 6:34:54 AM

Latest Report: Nov 25, 2015 at 6:00 AM

Visibility: 15 mi

Pressure: 29.91 "Hg

Humidity: 100%

Dew point: 28 °F

Location of StonewallLocation

Historic Weather in Stonewall — Graph


Stonewall temperature yesterday

Maximum temperature yesterday: 30 °F (at 7:00 PM)
Minimum temperature yesterday: 14 °F (at 1:00 AM)
Average temperature yesterday: 25 °F

Past Weeks' High & Low Weather Summary

High55 °F (Nov 15, 2:00 PM)100% (Nov 10, 5:00 AM)30.40 "Hg (Nov 10, 5:00 AM)
Low5 °F (Nov 21, 5:00 AM)54% (Nov 14, 3:00 PM)28.97 "Hg (Nov 18, 4:00 PM)
Average31 °F86%29.83 "Hg
* Reported Nov 10 5:00 AM — Nov 25 5:00 AM, Stonewall, Weather by CustomWeather, © 2015

Note: Actual official high and low records may vary slightly from our data, if they occured in-between our weather recording intervals... More about our weather records


Stonewall weather history for previous 24 hours

Time TempWeatherWind HumidityBarometerVisibility
5:00 AM
Wed, Nov 25
28 °FLight snow. Mostly cloudy.9 mph100%29.90 "Hg15 mi
4:50 AM28 °FLight snow. Mostly cloudy.10 mph100%29.90 "Hg10 mi
4:00 AM28 °FLight snow. Overcast.12 mph100%29.90 "Hg5 mi
3:00 AM28 °FLight snow. Overcast.13 mph93%29.90 "Hg10 mi
2:00 AM30 °FOvercast.8 mph86%29.90 "Hg15 mi
1:00 AM30 °FOvercast.7 mph86%29.91 "Hg15 mi
12:00 AM30 °FOvercast.7 mph86%29.93 "Hg15 mi
11:00 PM
Tue, Nov 24
30 °FOvercast.8 mph86%29.96 "Hg15 mi
10:00 PM30 °FOvercast.9 mph86%29.98 "Hg15 mi
9:00 PM30 °FOvercast.10 mph86%30.00 "Hg15 mi
8:00 PM30 °FOvercast.13 mph86%30.03 "Hg15 mi
7:00 PM30 °FMostly cloudy.14 mph80%30.03 "Hg15 mi
6:00 PM28 °FOvercast.14 mph86%30.05 "Hg15 mi
5:00 PM28 °FPartly cloudy.14 mph80%30.07 "Hg15 mi
4:01 PM28 °FPartly sunny.12 mph80%30.09 "Hg15 mi
3:00 PM28 °FPartly sunny.10 mph80%30.11 "Hg15 mi
2:00 PM28 °FOvercast.9 mph80%30.14 "Hg15 mi
1:00 PM28 °FMostly cloudy.13 mph80%30.16 "Hg15 mi
12:00 PM27 °FMore clouds than sun.10 mph80%30.20 "Hg15 mi
11:00 AM27 °FMostly cloudy.6 mph80%30.24 "Hg15 mi
10:00 AM25 °FMostly cloudy.8 mph80%30.24 "Hg15 mi
9:00 AM25 °FOvercast.9 mph86%30.24 "Hg15 mi
8:00 AM23 °FOvercast.5 mph86%30.24 "Hg15 mi
7:00 AM23 °FOvercast.8 mph86%30.23 "Hg15 mi
6:00 AM23 °FOvercast.8 mph93%30.24 "Hg15 mi
Weather by CustomWeather, © 2015

See weather overviewHow to use our weather pages